DELTA 1 DEB

基本信息
目录编号:
3126
目录名称:
DELTA 1 DEB
国际标识:
1968-002C
轨道中心:
EARTH
物体状态:
在轨
发射日期:
1968-01-11 UTC
轨道信息
数据来源: 国际轨道数据
星历时间: 2026-07-14T04:00:48+0800
半长轴: 7709.691km
偏心率: 0.0321024
轨道倾角: 106.061°
近地点辐角: 118.443°
升交点赤经: 155.757°
平近点角: 301.451°
近地点: 1084.054km
远地点: 1579.054km
周期: 112.283分钟
每日圈数: 12.824705
详细信息
发射场:
AFWTR
轨道高度:
LEO
数据来源:
AOE Integration Group
参考系:
TEME
时间系统:
UTC
历元类型:
SGP4
2D轨道图
3D轨道图
轨道高度分析图
轨道倾角分析图
轨道综合分析图
查看轨道综合分析图